Weather in Glushkovo

Russia / Kursk Oblast     51°20′21″N   34°38′06″E
temp.,
°C
wind,
m/s
gust,
m/s
humid.,
%
clouds,
%
prec.,
mm/h
press.,
hPa
HPBL,
m
7 march, sun
sun700:00−7w359794 0.2 102297
03:00−10wsw469354 0.2 1022130
06:00−9sw511860 0.0 1019255
09:00−6sw8168038 0.0 1017512
12:00−2sw101678100 0.0 1013957
15:00−1wsw111889100 0.1 10091356
18:00−1wsw101785100 0.1 10071060
21:000w91786100 0.2 1007960
8 march, mon
mon800:00−1wsw8138999 0.0 1006858
03:00−1wsw7139299 0.1 1006796
06:00−2w61196100 0.4 1005627
09:00−2w61093100 0.8 1006784
12:00−2wnw6983100 0.3 10081087
15:00−2w6883100 0.5 10081007
18:00−4w498699 0.1 1009310
21:00−5wnw499696 0.4 1011322
9 march, tue
tue900:00−9nw369133 0.1 1013108
03:00−10wnw369217 0.1 1014108
06:00−10wnw369657 0.0 1015154
09:00−10nw479478 0.1 1017272
12:00−7nw468592 0.0 1018647
15:00−7nw468394 0.1 1020768
18:00−8nw3689100 0.1 1020202
21:00−11nw348966 0.1 102371
10 march, wed
wed1000:00−12nnw229133 0.0 102424
03:00−13nnw129139 0.0 102420
06:00−14n119119 0.0 102520
09:00−12ene118859 0.0 102652
12:00−9ese008060 0.0 1026269
15:00−7sse017468 0.0 1026373
18:00−9e128480 0.0 102521
21:00−11se228584 0.0 102621
11 march, thu
thu1100:00−10se128689 0.0 102721
03:00−10se128686 0.0 102721
06:00−11se228666 0.0 102721
09:00−8sse248662 0.0 1027115
12:00−4ssw467095 0.0 1027635
15:00−2ssw476877 0.0 10261075
18:00−4s34700 0.0 102446
21:00−5s5107112 0.0 1023172